Location: NJAA Observatory
(40.6819°N, 74.8979°W)
Time: 22:15:32
(UTC-04:00)

Cosmos 2263 Rocket - Visible Passes

Search period start: 02 September 2014 00:00
Search period end: 12 September 2014 00:00
Orbit: 825 x 848 km, 71.0° (Epoch: 01 September)

Date Brightness Start Highest point End Pass type
(mag) Time Alt. Az. Time Alt. Az. Time Alt. Az.
02 Sep 3.6 03:56:30 10° N 04:01:39 37° ENE 04:06:45 10° SE visible
02 Sep 2.9 05:40:38 10° NW 05:45:25 30° WSW 05:50:11 10° SSW visible
02 Sep 5.0 20:32:30 10° W 20:36:06 17° NW 20:39:43 10° N visible
03 Sep 3.7 03:39:57 10° N 03:45:00 34° ENE 03:50:00 10° ESE visible
03 Sep 2.8 05:23:56 10° NW 05:28:51 33° WSW 05:33:44 10° SSW visible
03 Sep 5.0 20:15:36 10° W 20:19:25 18° NW 20:23:15 10° N visible
04 Sep 3.8 03:23:23 10° N 03:28:21 32° ENE 03:33:15 10° ESE visible
04 Sep 2.6 05:07:14 10° NW 05:12:16 36° WSW 05:17:16 10° S visible
04 Sep 4.9 19:58:44 10° W 20:02:45 20° NW 20:06:46 10° N visible
05 Sep 3.9 03:06:51 10° N 03:11:41 30° ENE 03:16:29 10° ESE visible
05 Sep 2.5 04:50:33 10° NW 04:55:41 39° WSW 05:00:47 10° S visible
06 Sep 4.0 02:50:18 10° N 02:55:02 27° NE 02:57:50 18° E visible
06 Sep 2.4 04:33:53 10° NW 04:39:06 43° WSW 04:39:15 43° WSW visible
07 Sep 4.0 02:33:46 10° N 02:38:22 26° NE 02:38:44 25° ENE visible
07 Sep 3.1 04:17:12 10° NW 04:20:17 31° NW 04:20:17 31° NW visible
08 Sep 4.2 02:17:15 10° N 02:20:47 23° NE 02:20:47 23° NE visible
08 Sep 3.8 04:00:32 10° NNW 04:02:22 21° NW 04:02:22 21° NW visible
09 Sep 4.5 02:00:44 10° N 02:03:17 19° NNE 02:03:17 19° NNE visible
09 Sep 4.2 03:43:53 10° NNW 03:44:54 16° NW 03:44:54 16° NW visible
10 Sep 4.7 01:44:14 10° N 01:46:04 16° NNE 01:46:04 16° NNE visible
10 Sep 4.5 03:27:14 10° NNW 03:27:42 12° NNW 03:27:42 12° NNW visible
11 Sep 4.8 01:27:44 10° N 01:29:01 14° NNE 01:29:01 14° NNE visible
11 Sep 4.7 03:10:35 10° NNW 03:10:40 10° NNW 03:10:40 10° NNW visible
